| time (UTC) | temp F | wind direction | speed MPH | gust MPH | rain 1hr in | rain 24hr in | rain mn in | humidity % | barometer mb |
| 20260506131603 | 67 | 271 | 2.0 | 5.0 | 0.00 | 0.00 | 0.00 | 72 | 1007.6 |
| 20260506130058 | 67 | 193 | 2.0 | 6.0 | 0.00 | 0.00 | 0.00 | 74 | 1007.6 |
| 20260506124556 | 67 | 200 | 1.0 | 5.0 | 0.00 | 0.00 | 0.00 | 74 | 1007.7 |
| 20260506123056 | 66 | 186 | 1.0 | 3.0 | 0.00 | 0.00 | 0.00 | 75 | 1007.8 |
| 20260506121556 | 66 | 205 | 1.0 | 3.0 | 0.00 | 0.00 | 0.00 | 75 | 1007.8 |
| 20260506120100 | 66 | 225 | 1.0 | 5.0 | 0.00 | 0.00 | 0.00 | 76 | 1007.9 |
| 20260506114548 | 65 | 0 | 1.0 | 4.0 | 0.00 | 0.00 | 0.00 | 75 | 1008.0 |
| 20260506113051 | 65 | 0 | 0.0 | 3.0 | 0.00 | 0.00 | 0.00 | 75 | 1007.6 |
| 20260506111552 | 65 | 0 | 1.0 | 3.0 | 0.00 | 0.00 | 0.00 | 75 | 1007.7 |
| 20260506110101 | 64 | 113 | 0.0 | 3.0 | 0.00 | 0.00 | 0.00 | 74 | 1007.7 |
| 20260506104603 | 64 | 217 | 0.0 | 2.0 | 0.00 | 0.00 | 0.00 | 74 | 1007.6 |
| 20260506103049 | 64 | 0 | 0.0 | 3.0 | 0.00 | 0.00 | 0.00 | 74 | 1007.7 |
| 20260506101553 | 64 | 166 | 0.0 | 4.0 | 0.00 | 0.00 | 0.00 | 73 | 1007.4 |
| 20260506100058 | 63 | 184 | 0.0 | 2.0 | 0.00 | 0.00 | 0.00 | 73 | 1007.4 |
| 20260506094556 | 63 | 164 | 1.0 | 4.0 | 0.00 | 0.00 | 0.00 | 72 | 1007.4 |
| 20260506093047 | 63 | 173 | 1.0 | 2.0 | 0.00 | 0.00 | 0.00 | 73 | 1007.6 |
| 20260506091551 | 62 | 147 | 0.0 | 4.0 | 0.00 | 0.00 | 0.00 | 74 | 1007.4 |
| 20260506090051 | 63 | 178 | 1.0 | 2.0 | 0.00 | 0.00 | 0.00 | 73 | 1007.4 |
| 20260506084616 | 64 | 178 | 0.0 | 2.0 | 0.00 | 0.00 | 0.00 | 70 | 1007.6 |
| 20260506083056 | 66 | 0 | 0.0 | 1.0 | 0.00 | 0.00 | 0.00 | 68 | 1007.7 |
| 20260506081558 | 67 | 175 | 0.0 | 3.0 | 0.00 | 0.00 | 0.00 | 65 | 1007.7 |
| 20260506073052 | 67 | 188 | 1.0 | 3.0 | 0.00 | 0.00 | 0.00 | 65 | 1007.8 |
| 20260506071559 | 67 | 186 | 1.0 | 3.0 | 0.00 | 0.00 | 0.00 | 64 | 1007.7 |
| 20260506061557 | 67 | 232 | 0.0 | 4.0 | 0.00 | 0.00 | 0.00 | 64 | 1008.2 |
| 20260506044550 | 66 | 194 | 0.0 | 2.0 | 0.00 | 0.00 | 0.00 | 67 | 1008.4 |
| 20260506043050 | 66 | 0 | 0.0 | 0.0 | 0.00 | 0.00 | 0.00 | 67 | 1008.5 |
| 20260506041602 | 66 | 0 | 0.0 | 0.0 | 0.00 | 0.00 | 0.00 | 67 | 1008.4 |
| 20260506040050 | 66 | 0 | 0.0 | 0.0 | 0.00 | 0.00 | 0.00 | 67 | 1008.2 |
| 20260506034554 | 67 | 0 | 0.0 | 0.0 | 0.00 | 0.00 | 0.00 | 66 | 1008.3 |
| 20260506033049 | 67 | 0 | 0.0 | 1.0 | 0.00 | 0.00 | 0.00 | 65 | 1008.1 |
| 20260506031555 | 68 | 0 | 0.0 | 1.0 | 0.00 | 0.00 | 0.00 | 63 | 1008.2 |
| 20260506030049 | 68 | 0 | 0.0 | 2.0 | 0.00 | 0.00 | 0.00 | 61 | 1008.2 |
| 20260506024556 | 69 | 0 | 0.0 | 0.0 | 0.00 | 0.00 | 0.00 | 61 | 1008.2 |
| 20260506023109 | 70 | 0 | 0.0 | 0.0 | 0.00 | 0.00 | 0.00 | 59 | 1008.1 |
| 20260506021611 | 71 | 0 | 0.0 | 2.0 | 0.00 | 0.00 | 0.00 | 57 | 1007.9 |
| 20260506020057 | 71 | 0 | 0.0 | 2.0 | 0.00 | 0.00 | 0.00 | 53 | 1007.9 |
| 20260506014557 | 71 | 0 | 0.0 | 1.0 | 0.00 | 0.00 | 0.00 | 52 | 1007.8 |
| 20260506013108 | 72 | 0 | 0.0 | 2.0 | 0.00 | 0.00 | 0.00 | 51 | 1007.5 |
| 20260506011615 | 74 | 0 | 0.0 | 2.0 | 0.00 | 0.00 | 0.00 | 49 | 1007.3 |
| 20260506010057 | 75 | 0 | 0.0 | 3.0 | 0.00 | 0.00 | 0.00 | 45 | 1007.2 |
| 20260506004554 | 76 | 294 | 0.0 | 3.0 | 0.00 | 0.00 | 0.00 | 43 | 1007.1 |
| 20260506003056 | 76 | 213 | 1.0 | 6.0 | 0.00 | 0.00 | 0.00 | 42 | 1007.0 |
| 20260506001556 | 77 | 177 | 1.0 | 6.0 | 0.00 | 0.00 | 0.00 | 41 | 1006.9 |
| 20260506000053 | 77 | 223 | 2.0 | 7.0 | 0.00 | 0.00 | 0.00 | 40 | 1006.8 |
| 20260505234551 | 77 | 0 | 2.0 | 7.0 | 0.00 | 0.00 | 0.00 | 40 | 1006.7 |
| 20260505233051 | 78 | 209 | 1.0 | 5.0 | 0.00 | 0.00 | 0.00 | 40 | 1006.5 |
| 20260505231604 | 78 | 225 | 1.0 | 4.0 | 0.00 | 0.00 | 0.00 | 39 | 1006.2 |
| 20260505230051 | 79 | 179 | 3.0 | 8.0 | 0.00 | 0.00 | 0.00 | 38 | 1006.3 |
| 20260505224552 | 79 | 207 | 3.0 | 10.0 | 0.00 | 0.00 | 0.00 | 37 | 1006.0 |
| 20260505223057 | 80 | 0 | 1.0 | 6.0 | 0.00 | 0.00 | 0.00 | 37 | 1005.7 |
| 20260505221551 | 80 | 194 | 3.0 | 13.0 | 0.00 | 0.00 | 0.00 | 36 | 1005.6 |
| 20260505220059 | 80 | 212 | 2.0 | 7.0 | 0.00 | 0.00 | 0.00 | 35 | 1005.6 |
| 20260505214556 | 81 | 200 | 1.0 | 8.0 | 0.00 | 0.00 | 0.00 | 35 | 1005.4 |
| 20260505213049 | 81 | 207 | 2.0 | 8.0 | 0.00 | 0.00 | 0.00 | 36 | 1005.1 |
| 20260505211552 | 82 | 0 | 3.0 | 8.0 | 0.00 | 0.00 | 0.00 | 36 | 1005.1 |
| 20260505210051 | 83 | 187 | 4.0 | 10.0 | 0.00 | 0.00 | 0.00 | 34 | 1005.2 |
| 20260505204551 | 83 | 213 | 3.0 | 10.0 | 0.00 | 0.00 | 0.00 | 34 | 1004.9 |
| 20260505203107 | 83 | 241 | 4.0 | 15.0 | 0.00 | 0.00 | 0.00 | 36 | 1004.8 |
| 20260505201600 | 83 | 289 | 4.0 | 13.0 | 0.00 | 0.00 | 0.00 | 33 | 1005.0 |
| 20260505200054 | 83 | 228 | 3.0 | 12.0 | 0.00 | 0.00 | 0.00 | 35 | 1005.3 |
| 20260505194551 | 84 | 144 | 6.0 | 18.0 | 0.00 | 0.00 | 0.00 | 35 | 1005.4 |
| 20260505193048 | 84 | 181 | 2.0 | 10.0 | 0.00 | 0.00 | 0.00 | 36 | 1005.6 |
| 20260505191601 | 84 | 201 | 4.0 | 14.0 | 0.00 | 0.00 | 0.00 | 36 | 1005.7 |
| 20260505190050 | 84 | 253 | 4.0 | 14.0 | 0.00 | 0.00 | 0.00 | 35 | 1005.8 |
| 20260505184553 | 84 | 23 | 6.0 | 13.0 | 0.00 | 0.00 | 0.00 | 38 | 1005.9 |
| 20260505183054 | 84 | 192 | 2.0 | 11.0 | 0.00 | 0.00 | 0.00 | 38 | 1006.1 |
| 20260505181550 | 84 | 211 | 3.0 | 17.0 | 0.00 | 0.00 | 0.00 | 41 | 1006.4 |
| 20260505180100 | 85 | 185 | 2.0 | 11.0 | 0.00 | 0.00 | 0.00 | 39 | 1006.5 |
| 20260505174555 | 85 | 241 | 2.0 | 9.0 | 0.00 | 0.00 | 0.00 | 42 | 1006.6 |
| 20260505173059 | 84 | 236 | 2.0 | 17.0 | 0.00 | 0.00 | 0.00 | 41 | 1006.9 |
| 20260505171554 | 83 | 202 | 3.0 | 10.0 | 0.00 | 0.00 | 0.00 | 43 | 1006.9 |
| 20260505170110 | 82 | 271 | 3.0 | 9.0 | 0.00 | 0.00 | 0.00 | 43 | 1007.2 |
| 20260505164557 | 82 | 173 | 2.0 | 10.0 | 0.00 | 0.00 | 0.00 | 45 | 1007.5 |
| 20260505163102 | 82 | 158 | 2.0 | 7.0 | 0.00 | 0.00 | 0.00 | 46 | 1007.7 |
| 20260505161616 | 81 | 190 | 1.0 | 7.0 | 0.00 | 0.00 | 0.00 | 46 | 1007.8 |
| 20260505153106 | 79 | 250 | 2.0 | 8.0 | 0.00 | 0.00 | 0.00 | 50 | 1008.4 |
| 20260505151604 | 78 | 212 | 2.0 | 6.0 | 0.00 | 0.00 | 0.00 | 52 | 1008.4 |